Regional Weather Roundup
Issued by NWS State College, PA

Home | Current Version | Previous Version | Graphics & Text | Print | Product List | Glossary On
Versions: 1 2 3 4 5 6 7 8 9 10 11 12 13 14 15 16 17 18 19 20 21 22 23 24 25 26 27 28 29 30 31 32 33 34 35 36 37 38 39 40 41 42 43 44 45 46 47 48 49 50
602
ASUS41 KCTP 100910
RWRCTP

REGIONAL WEATHER ROUNDUP
NATIONAL WEATHER SERVICE STATE COLLEGE PA
400 AM EST SAT DEC 10 2016

Note: "fair" indicates few or no clouds below 12,000 feet with no
significant weather and/or obstructions to visibility.

* = STATION THAT DOES NOT REPORT PRECIPITATION /E.G. RAIN...SNOW...ETC/
    THUNDER OR FOG.

PAZ002>004-007>009-013>016-020>023-029>032-101000-
WESTERN PENNSYLVANIA

CITY           SKY/WX    TMP DP  RH WIND       PRES   REMARKS
ERIE           LGT SNOW  28  22  78 W16G23    30.36R
MEADVILLE      CLOUDY    22  17  81 W13       30.33S WCI  10
FRANKLIN*        N/A     21  12  68 W8        30.35R WCI  12
NEW CASTLE     PTSUNNY   24  17  74 SW9       30.41R WCI  14
BEAVER COUNTY  NOT AVBL
BUTLER*        CLOUDY    23  16  74 W10G20    30.42R WCI  12
PITTSBURGH INT FLURRIES  25  19  78 W9        30.41R
PITTSBURGH     CLOUDY    23  17  78 W9        30.40R WCI  13
INDIANA*       CLOUDY    25  18  74 W14       30.39S WCI  13
LATROBE        CLOUDY    25  18  74 SW12      30.42S WCI  14
WASHINGTON CO* CLOUDY    23  16  74 SW7       30.43S WCI  15
$$

PAZ004>006-010>012-017>019-024>028-033>037-041-042-045-046-049>053-101000-
CENTRAL PENNSYLVANIA

CITY           SKY/WX    TMP DP  RH WIND       PRES   REMARKS
BRADFORD       CLOUDY    21  18  88 W10       30.25R WCI  10
DUBOIS         LGT SNOW  22  17  81 W10       30.30R WCI  11
CLEARFIELD     FLURRIES  23  19  85 W10       30.32S WCI  12
JOHNSTOWN      FLURRIES  20  14  77 W13G23    30.30S WCI   7
ALTOONA        CLOUDY    25  17  72 W12G22    30.36R WCI  14
STATE COLLEGE  FLURRIES  24  19  81 SW9       30.33S WCI  15
WILLIAMSPORT   CLOUDY    29  19  66 W16       30.34S
SELINSGROVE    MOCLDY    28  19  69 W3        30.37F
FT INDIANTOWN  CLOUDY    28  17  63 SW8       30.37S
CAPITAL CITY   CLEAR     28  15  58 W8        30.40R
HARRISBURG     PTCLDY    29  19  66 W15       30.39S
YORK           PTCLDY    24  17  74 W5        30.39S
$$

PAZ038>040-043-044-047-048-054-055-060>062-067>071-101000-
EASTERN PENNSYLVANIA

CITY           SKY/WX    TMP DP  RH WIND       PRES   REMARKS
SCRANTON       CLOUDY    27  16  63 W7        30.29S
MOUNT POCONO   MOCLDY    20  11  68 W7        30.21R WCI  11
ALLENTOWN      CLOUDY    29  22  75 W10       30.34S
QUAKERTOWN*    CLOUDY    28  23  80 W5        30.36R
READING        CLOUDY    28  17  63 W13       30.36S
LANCASTER      CLEAR     23  18  81 W9        30.38F WCI  13
COATESVILLE    SUNNY     25  18  74 W9        30.38R
POTTSTOWN      CLEAR     26  17  68 W6        30.38S
BLUE BELL      MOCLDY    28  19  69 W3        30.36S
DOYLESTOWN     CLOUDY    30  23  75 W7        30.35R
WILLOW GROVE   NOT AVBL
NORTH PHILA    NOT AVBL
PHILADELPHIA   PTCLDY    28  18  66 W8        30.40S
$$




USA.gov is the U.S. government's official web portal to all federal, state and local government web resources and services.